STARLINK-34587

Last updated on Sat Jul 19 2025 00:02:08 GMT+0000 (Coordinated Universal Time)

1 64735U 25144M 25199.58335648 -.01522405 00000+0 -12951-1 0 9998 2 64735 53.1587 192.1866 0001080 53.9382 51.6138 15.71640640 3784
UTC large
Height (km)
Speed (km/s)
/
Latitude / Longitude
Inclination (degrees)
Orbital Period (minutes)
Azimuth
Elevation
Range (km)
Doppler Factor

Next 0 passes for location: London (51.5072 / 0.1276)

Sorry there are no passes over London.